sat.trackr.live / text

‹ back to catalog

STARLINK-30792

NORAD 58220 · 2023-170Q

PAYLOAD ACTIVE UNKNOWN

§ Identity

Operator
Country
US
Launch date
2023-11-03
Launch site
AFETR
Launch vehicle
Mass (kg)
RCS (m²)

Purposes: comms

External: N2YO · Heavens-Above · Gunter

§ Orbital elements

Epoch: 2026-09-20T04:36:32.372640Z

Period
95.29 min
Inclination
42.9967°
Eccentricity
0.0010092
Mean motion
15.11115652 rev/d
Perigee alt
525.8 km
Apogee alt
539.8 km
Semi-major
6,910.9 km
B*
9.0379e-4
RAAN
210.0411°
Arg perigee
123.0376°
Mean anomaly
237.1440°
Rev number
15,964

§ Raw data

STARLINK-307921 58220U 23170Q   26263.19204135  .00015235  00000+0  90379-3 0  99902 58220  42.9967 210.0411 0010092 123.0376 237.1440 15.11115652159643

JSON: /api/v1/satellites/58220 · /tle

For live sub-satellite position, see the globe view (requires WebGL).

§ Visibility from observer

Set your observer location to see the next 7 days of passes ≥ 10°. The values pass through the URL so the page stays shareable.

No JS? Fill the form by hand. The geolocation button needs JavaScript.